TimeCDT,TemperatureF,Dew PointF,Humidity,Sea Level PressureIn,VisibilityMPH,Wind Direction,Wind SpeedMPH,Gust SpeedMPH,PrecipitationIn,Events,Conditions,WindDirDegrees,DateUTC
12:03 AM,46.4,41.0,81,30.23,10.0,North,8.1,-,N/A,,Overcast,360,2012-10-07 05:03:00
12:53 AM,46.0,39.9,79,30.22,10.0,NNE,9.2,-,0.00,Rain,Light Rain,20,2012-10-07 05:53:00
1:53 AM,45.0,41.0,86,30.22,10.0,North,5.8,-,0.00,,Overcast,10,2012-10-07 06:53:00
2:53 AM,45.0,41.0,86,30.23,10.0,NNW,5.8,-,N/A,,Overcast,340,2012-10-07 07:53:00
3:53 AM,45.0,41.0,86,30.23,10.0,North,5.8,-,N/A,,Overcast,350,2012-10-07 08:53:00
4:53 AM,45.0,39.9,82,30.24,10.0,North,5.8,-,N/A,,Overcast,360,2012-10-07 09:53:00
5:53 AM,45.0,41.0,86,30.25,10.0,NNW,5.8,-,N/A,,Mostly Cloudy,340,2012-10-07 10:53:00
6:53 AM,44.1,42.1,93,30.25,10.0,North,5.8,-,N/A,,Clear,360,2012-10-07 11:53:00
7:53 AM,45.0,42.1,90,30.26,10.0,North,5.8,-,N/A,,Mostly Cloudy,360,2012-10-07 12:53:00
8:53 AM,46.9,41.0,80,30.27,10.0,NNE,8.1,-,N/A,,Overcast,20,2012-10-07 13:53:00
9:26 AM,46.4,39.2,76,30.29,10.0,North,10.4,-,N/A,,Overcast,360,2012-10-07 14:26:00
9:53 AM,48.0,39.0,71,30.29,10.0,North,8.1,-,N/A,,Scattered Clouds,10,2012-10-07 14:53:00
10:53 AM,53.1,39.0,59,30.29,10.0,NNE,11.5,-,N/A,,Partly Cloudy,30,2012-10-07 15:53:00
11:53 AM,54.0,37.9,55,30.27,10.0,NNE,9.2,-,N/A,,Clear,20,2012-10-07 16:53:00
12:53 PM,57.0,39.0,51,30.24,10.0,NE,11.5,17.3,N/A,,Clear,50,2012-10-07 17:53:00
1:53 PM,57.9,37.0,46,30.22,10.0,ENE,5.8,-,N/A,,Clear,60,2012-10-07 18:53:00
2:53 PM,59.0,39.0,48,30.18,10.0,NNE,4.6,-,N/A,,Clear,20,2012-10-07 19:53:00
3:53 PM,57.9,39.9,51,30.17,10.0,North,6.9,-,N/A,,Overcast,10,2012-10-07 20:53:00
4:53 PM,57.9,43.0,58,30.16,10.0,North,4.6,-,N/A,,Mostly Cloudy,360,2012-10-07 21:53:00
5:53 PM,55.9,44.1,64,30.19,10.0,NW,3.5,-,N/A,,Overcast,320,2012-10-07 22:53:00
6:53 PM,53.1,46.9,80,30.17,10.0,Calm,Calm,-,0.02,Rain,Light Rain,0,2012-10-07 23:53:00
7:53 PM,48.9,46.9,93,30.21,8.0,North,9.2,-,0.01,Rain,Rain,360,2012-10-08 00:53:00
8:53 PM,48.0,46.9,96,30.20,10.0,North,3.5,-,0.00,Rain,Light Rain,350,2012-10-08 01:53:00
9:14 PM,48.2,46.4,93,30.20,10.0,North,5.8,-,0.01,Rain,Light Rain,10,2012-10-08 02:14:00
9:53 PM,46.9,45.0,93,30.20,10.0,NNE,4.6,-,0.01,Rain,Light Rain,30,2012-10-08 02:53:00
10:42 PM,46.4,44.6,93,30.22,6.0,North,5.8,-,0.05,Rain,Light Rain,350,2012-10-08 03:42:00
10:53 PM,46.0,45.0,96,30.22,6.0,North,5.8,-,0.07,Rain,Rain,360,2012-10-08 03:53:00
11:53 PM,45.0,44.1,97,30.22,6.0,NNE,5.8,-,0.13,Rain,Light Rain,30,2012-10-08 04:53:00